This demonstration page uses our WeatherBlox Daily Observations layout. Learn more.

Left ArrowRight Arrow

41.55636, -103.73856

Hourly Observations for June 11, 2019

Temp ( °F °C ) Dew Point ( °F °C ) Humidity (%) Winds ( mph kmh ) Pressure ( in mb ) Visibility ( mi km ) Precip ( " mm )
12:58 am 00:58 Clear 69 20.4 38 3.2 32 32 NNE 3 6 30.10 1019 10 16 N/A
1:58 am 01:58 Clear 64 17.9 43 6.2 46 46 ESE 6 9 30.09 1019 10 16 N/A
2:58 am 02:58 Partly Cloudy 62 16.8 37 3 40 40 ENE 8 13 30.07 1018 10 16 N/A
3:58 am 03:58 Mostly Clear 61 16.2 35 1.8 38 38 E 8 13 30.09 1019 10 16 N/A
4:58 am 04:58 Mostly Cloudy 59 15 35 1.7 41 41 E 6 9 30.06 1018 10 16 N/A
5:58 am 05:58 Partly Cloudy 56 13.5 38 3.2 50 50 NNE 15 24 30.07 1018 10 16 N/A
6:56 am 06:56 Mostly Cloudy 54 12.1 39 3.9 58 58 NE 7 11 30.06 1018 10 16 N/A
7:58 am 07:58 Clear 51 10.7 37 2.7 58 58 N 3 6 30.05 1018 10 16 N/A
8:58 am 08:58 Clear 46 7.7 37 3 72 72 NNW 8 13 30.07 1018 10 16 N/A
9:58 am 09:58 Mostly Clear 43 6.2 39 3.9 85 85 W 9 15 30.06 1018 10 16 N/A
10:58 am 10:58 Partly Cloudy 45 7.2 39 4.1 81 81 W 9 15 30.07 1018 10 16 N/A
11:58 am 11:58 Sunny 43 6.3 38 3.4 82 82 WNW 8 13 30.09 1019 10 16 N/A
12:58 pm 12:58 Sunny 50 9.8 40 4.6 70 70 W 8 13 30.09 1019 10 16 N/A
1:58 pm 13:58 Mostly Sunny 55 13 40 4.7 57 57 NW 7 11 30.09 1019 10 16 N/A
2:58 pm 14:58 Mostly Sunny 57 14.1 42 5.7 57 57 N 18 30 30.11 1020 10 16 N/A
3:58 pm 15:58 Mostly Cloudy 57 13.7 42 5.7 59 59 N 14 22 30.13 1020 10 16 N/A
4:58 pm 16:58 Mostly Cloudy 57 13.8 43 6 60 60 N 14 22 30.15 1021 10 16 N/A
7:58 pm 19:58 Mostly Sunny 63 17.1 46 7.5 53 53 NNW 16 26 30.14 1021 10 16 N/A
8:58 pm 20:58 Mostly Cloudy 61 16.1 44 6.9 55 55 N 16 26 30.14 1021 10 16 N/A
9:58 pm 21:58 Mostly Cloudy 58 14.6 42 5.5 55 55 NNW 16 26 30.16 1022 10 16 N/A
10:58 pm 22:58 Mostly Cloudy 60 15.4 42 5.8 53 53 NNW 21 33 30.16 1022 10 16 N/A
11:58 pm 23:58 Partly Cloudy 60 15.7 42 5.8 52 52 N 21 33 30.16 1022 10 16 N/A

Powered by AerisWeather